Stations météo

Publicité
Palma De Mallorca/Son San Ju, Espagne (8306): Température de l'air & dewpoint: 07.12.2018 11:00:00 - 13.12.2018 11:00:00 (CET)Palma De Mallorca/Son San Ju, Espagne (8306): Vitesse du vent: 07.12.2018 11:00:00 - 13.12.2018 11:00:00 (CET)Palma De Mallorca/Son San Ju, Espagne (8306): Direction du vent: 07.12.2018 11:00:00 - 13.12.2018 11:00:00 (CET)Palma De Mallorca/Son San Ju, Espagne (8306): reduced air pressure: 07.12.2018 11:00:00 - 13.12.2018 11:00:00 (CET)Palma De Mallorca/Son San Ju, Espagne (8306): visibility: 07.12.2018 11:00:00 - 13.12.2018 11:00:00 (CET)
Date & Time tt [°C] td [°C] ff [km/h] ff [knt] dd ppp [hPa] vv [km]
13.12.2018 11:00:00 15,8 11,6 21 11 WSW 1008,4 10
13.12.2018 10:00:00 15,6 10,6 28 15 WSW 1009,1 18
13.12.2018 09:00:00 15,5 9,8 28 15 WSW 1009,7 10
13.12.2018 08:00:00 15,4 9,7 34 18 WSW 1009,9 10
13.12.2018 07:00:00 14,8 10,4 28 15 WSW 1010,3 18
13.12.2018 06:00:00 8,6 8,0 4 2 ENE 1010,9 10
13.12.2018 05:00:00 8,4 7,6 0 0 N 1012,1 10
13.12.2018 04:00:00 7,9 7,1 0 0 N 1012,7 10
13.12.2018 03:00:00 8,1 7,2 4 2 NNW 1013,8 10
13.12.2018 02:00:00 8,2 7,2 4 2 E 1014,1 10
13.12.2018 01:00:00 7,6 6,4 4 2 - 1015,2 10
13.12.2018 00:00:00 8,4 6,5 8 4 ENE 1016,0 10
12.12.2018 23:00:00 9,5 7,6 4 2 ENE 1016,4 10
12.12.2018 22:00:00 9,6 7,3 2 1 NNE 1016,8 10
12.12.2018 21:00:00 10,0 6,7 4 2 ENE 1017,6 10
12.12.2018 20:00:00 10,3 6,6 4 2 - 1017,3 10
12.12.2018 19:00:00 11,2 6,1 5 3 NNE 1017,3 30
12.12.2018 18:00:00 13,9 5,6 9 5 WNW 1017,5 10
12.12.2018 17:00:00 16,1 6,8 5 3 WNW 1017,6 10
12.12.2018 16:00:00 17,5 6,1 9 5 NW 1017,5 10
12.12.2018 15:00:00 18,1 6,4 11 6 SSW 1017,6 10
12.12.2018 14:00:00 17,4 11,8 13 7 SW 1018,0 10
12.12.2018 13:00:00 17,1 12,4 13 7 SW 1018,9 26
12.12.2018 12:00:00 17,4 10,0 5 3 W 1019,6 10
12.12.2018 11:00:00 14,9 10,9 0 0 N 1020,5 10
12.12.2018 10:00:00 10,3 9,4 0 0 N 1020,4 10
12.12.2018 09:00:00 7,2 6,9 4 2 - 1020,1 10
12.12.2018 08:00:00 6,7 6,6 0 0 N 1019,7 10
12.12.2018 07:00:00 6,8 6,5 4 2 - 1019,4 10
12.12.2018 06:00:00 7,5 7,2 4 2 N 1019,1 10
12.12.2018 05:00:00 7,8 7,7 2 1 - 1019,4 10
12.12.2018 04:00:00 7,4 7,3 2 1 - 1019,6 10
12.12.2018 03:00:00 7,2 7,0 5 3 NE 1019,8 10
12.12.2018 02:00:00 7,1 6,8 4 2 - 1019,8 10
12.12.2018 01:00:00 8,0 7,7 2 1 NNE 1020,0 10
12.12.2018 00:00:00 8,4 8,0 2 1 NE 1020,4 10
11.12.2018 23:00:00 9,3 8,8 2 1 - 1020,6 10
11.12.2018 22:00:00 8,6 7,8 4 2 NE 1020,4 12
11.12.2018 21:00:00 10,3 9,1 0 0 N 1020,7 10
11.12.2018 20:00:00 11,0 9,4 4 2 - 1020,7 10
11.12.2018 19:00:00 12,6 10,8 8 4 W 1020,4 20
11.12.2018 18:00:00 13,2 10,7 9 5 WSW 1020,8 10
11.12.2018 17:00:00 15,0 11,8 11 6 SW 1020,6 10
11.12.2018 16:00:00 16,2 12,0 18 10 SW 1020,7 28
11.12.2018 15:00:00 16,0 11,8 16 9 SW 1021,3 10
11.12.2018 14:00:00 17,1 12,6 13 7 SW 1021,7 10
11.12.2018 13:00:00 16,3 11,5 11 6 SW 1022,5 10
11.12.2018 12:00:00 16,3 11,2 5 3 W 1023,2 10
11.12.2018 11:00:00 14,1 10,3 0 0 N 1023,7 10
11.12.2018 10:00:00 10,4 9,3 2 1 S 1023,7 10
11.12.2018 09:00:00 6,9 6,8 4 2 NNE 1023,7 10
11.12.2018 08:00:00 5,3 5,2 2 1 NNW 1023,7 10
11.12.2018 07:00:00 5,1 4,9 4 2 ENE 1023,8 10
11.12.2018 06:00:00 5,3 5,0 4 2 N 1023,7 10
11.12.2018 05:00:00 6,5 6,2 0 0 N 1024,1 10
11.12.2018 04:00:00 6,9 6,6 4 2 ENE 1024,5 15
11.12.2018 03:00:00 7,5 7,1 4 2 ENE 1025,0 10
11.12.2018 02:00:00 9,2 8,7 0 0 N 1025,2 10
11.12.2018 01:00:00 9,8 9,0 4 2 NE 1026,0 10
11.12.2018 00:00:00 11,1 10,2 8 4 NW 1026,8 10
10.12.2018 23:00:00 11,3 10,4 4 2 N 1027,2 10
10.12.2018 22:00:00 12,3 11,0 5 3 ENE 1027,3 10
10.12.2018 21:00:00 13,0 11,4 8 4 ENE 1027,4 10
10.12.2018 20:00:00 14,0 11,7 11 6 NNE 1027,6 10
10.12.2018 19:00:00 13,3 11,4 4 2 ESE 1027,3 20
10.12.2018 18:00:00 13,8 11,5 0 0 N 1027,2 10
10.12.2018 17:00:00 15,5 11,8 8 4 WSW 1027,1 10
10.12.2018 16:00:00 16,7 11,6 9 5 WSW 1027,2 10
10.12.2018 15:00:00 17,3 11,9 13 7 SW 1027,1 10
10.12.2018 14:00:00 17,7 11,2 9 5 WSW 1027,6 10
10.12.2018 13:00:00 18,2 10,8 8 4 SW 1028,3 26
10.12.2018 12:00:00 17,8 10,7 5 3 NW 1029,2 10
10.12.2018 11:00:00 16,4 11,5 2 1 - 1029,5 10
10.12.2018 10:00:00 13,1 10,6 2 1 - 1029,4 10
10.12.2018 09:00:00 11,0 9,6 2 1 ESE 1029,0 10
10.12.2018 08:00:00 10,8 9,4 2 1 WNW 1028,7 10
10.12.2018 07:00:00 10,4 9,0 8 4 N 1028,4 15
10.12.2018 06:00:00 9,6 8,0 4 2 NE 1028,1 10
10.12.2018 05:00:00 9,8 8,1 5 3 ENE 1028,1 10
10.12.2018 04:00:00 9,7 7,6 4 2 - 1027,8 10
10.12.2018 03:00:00 8,9 6,3 5 3 NE 1027,8 10
10.12.2018 02:00:00 9,6 5,6 11 6 E 1027,6 10
10.12.2018 01:00:00 10,8 5,7 8 4 ENE 1027,5 10
10.12.2018 00:00:00 14,3 7,1 8 4 NNE 1027,3 10
09.12.2018 23:00:00 15,5 6,8 11 6 ENE 1026,2 10
09.12.2018 22:00:00 16,5 5,7 11 6 NNW 1026,3 10
09.12.2018 21:00:00 17,8 4,7 11 6 N 1025,6 10
09.12.2018 20:00:00 17,2 6,5 11 6 W 1025,0 10
09.12.2018 19:00:00 16,8 6,6 11 6 WSW 1024,4 10
09.12.2018 18:00:00 17,4 6,5 22 12 W 1023,8 10
09.12.2018 17:00:00 19,1 6,0 16 9 W 1023,4 10
09.12.2018 16:00:00 20,2 8,3 13 7 W 1023,2 30
09.12.2018 15:00:00 21,1 7,0 16 9 W 1023,2 10
09.12.2018 14:00:00 21,3 8,1 9 5 W 1023,8 10
09.12.2018 13:00:00 20,3 11,0 28 15 SW 1024,6 10
09.12.2018 12:00:00 19,4 11,4 22 12 WSW 1025,4 10
09.12.2018 11:00:00 18,4 11,9 26 14 W 1026,0 10
09.12.2018 10:00:00 17,3 13,2 24 13 WSW 1025,8 10
09.12.2018 09:00:00 16,0 12,7 24 13 WSW 1025,7 10
09.12.2018 08:00:00 14,7 13,1 22 12 WSW 1025,8 10
09.12.2018 07:00:00 13,5 12,1 18 10 WSW 1025,7 10
09.12.2018 06:00:00 8,3 8,2 4 2 WSW 1025,9 10
09.12.2018 05:00:00 5,2 4,6 4 2 - 1026,8 10
09.12.2018 04:00:00 5,2 4,5 4 2 NE 1027,3 15
09.12.2018 03:00:00 5,7 4,7 4 2 - 1027,5 10
09.12.2018 02:00:00 5,9 4,7 0 0 N 1027,5 10
09.12.2018 01:00:00 6,1 4,9 2 1 W 1027,9 10
09.12.2018 00:00:00 5,8 4,4 4 2 - 1028,2 10
08.12.2018 23:00:00 6,3 4,5 4 2 - 1028,4 10
08.12.2018 22:00:00 7,4 5,2 8 4 ESE 1028,2 15
08.12.2018 21:00:00 7,9 4,9 4 2 NNW 1028,3 10
08.12.2018 20:00:00 9,4 4,8 2 1 - 1028,2 10
08.12.2018 19:00:00 12,8 5,2 5 3 SW 1028,0 10
08.12.2018 18:00:00 14,1 4,9 9 5 W 1027,7 10
08.12.2018 17:00:00 15,2 5,2 16 9 NW 1027,3 10
08.12.2018 16:00:00 17,0 5,3 16 9 WNW 1027,1 10
08.12.2018 15:00:00 17,2 6,3 5 3 NNE 1026,5 10
08.12.2018 14:00:00 16,2 9,9 8 4 E 1026,9 10
08.12.2018 13:00:00 15,7 10,9 9 5 E 1027,6 20
08.12.2018 12:00:00 15,2 10,6 15 8 ENE 1027,9 10
08.12.2018 11:00:00 15,9 10,9 11 6 E 1028,0 10
08.12.2018 10:00:00 15,5 8,0 15 8 N 1027,2 30
08.12.2018 09:00:00 13,8 8,6 28 15 NW 1025,9 10
08.12.2018 08:00:00 9,1 9,0 11 6 NE 1025,5 10
08.12.2018 07:00:00 8,3 8,2 11 6 NNW 1024,6 10
08.12.2018 06:00:00 7,6 7,5 2 1 NE 1023,9 7
08.12.2018 05:00:00 7,4 7,3 2 1 - 1023,7 6
08.12.2018 04:00:00 8,8 8,7 4 2 E 1023,9 6
08.12.2018 03:00:00 8,8 8,5 0 0 N 1024,1 10
08.12.2018 02:00:00 8,7 8,4 2 1 - 1024,0 10
08.12.2018 01:00:00 9,2 8,7 5 3 NE 1024,0 10
08.12.2018 00:00:00 10,3 9,5 2 1 NE 1024,1 10
07.12.2018 23:00:00 11,5 10,2 0 0 N 1024,0 10
07.12.2018 22:00:00 12,7 10,9 11 6 WSW 1024,5 10
07.12.2018 21:00:00 14,5 12,9 11 6 WSW 1024,1 10
07.12.2018 20:00:00 15,3 13,0 13 7 W 1024,2 10
07.12.2018 19:00:00 15,3 13,1 9 5 WSW 1024,1 15
07.12.2018 18:00:00 15,7 12,9 11 6 WSW 1023,9 10
07.12.2018 17:00:00 16,2 12,9 13 7 WSW 1023,8 10
07.12.2018 16:00:00 17,2 13,0 18 10 SW 1023,5 30
07.12.2018 15:00:00 17,7 12,9 16 9 SW 1024,3 10
07.12.2018 14:00:00 18,1 12,9 16 9 WSW 1024,5 10
07.12.2018 13:00:00 18,2 13,0 18 10 WSW 1025,2 10
07.12.2018 12:00:00 17,4 13,8 11 6 WSW 1026,1 10
07.12.2018 11:00:00 16,1 12,5 0 0 N 1026,6 10

tt = Température de l'air
td = dewpoint
ff = Vitesse du vent
dd = Direction du vent
ppp = reduced air pressure
vv = visibility

stations d'obs. à proximité